weather.gov     
National Weather Service

Regional Weather Roundup
NWS Homepage
This page is being discontinued on March 12, 2014.
The same data is available at this site. Please update your bookmarks.
Thank you, and we apologize for the inconvenience.
Please send an email to SR-SRH.Webmaster@noaa.gov with any concerns.


Current Version
Previous Version:    01  02  03  04  05  06  07  08  09  10  11  12  13  14  15  16  17  18  19  20  21  22  23  24  25  26  
[Printable]
476
ASUS42 KILM 301410
RWRILM
RWRILM
REGIONAL HOURLY WEATHER ROUNDUP
NATIONAL WEATHER SERVICE WILMINGTON NC
1100 AM ADT THU OCT 30 2014

NOTE: "FAIR" INDICATES FEW OR NO CLOUDS BELOW 12,000 FEET WITH NO
SIGNIFICANT WEATHER AND/OR OBSTRUCTIONS TO VISIBILITY.

...............WFO WILMINGTON COUNTY WARNING AREA...............

......COASTAL NC AND SC COUNTIES......

CITY           SKY/WX    TMP DP  RH WIND       PRES   REMARKS
WILMINGTON     NOT AVBL
SOUTHPORT      NOT AVBL
N MYRTLE BEACH CLOUDY    59  55  87 N8        30.00R
MYRTLE BEACH   CLOUDY    59  54  82 N12       30.00R

......INLAND NC AND SC COUNTIES.......

CITY           SKY/WX    TMP DP  RH WIND       PRES   REMARKS
LUMBERTON      NOT AVBL
ELIZABETHTOWN  NOT AVBL
WHITEVILLE     NOT AVBL
FLORENCE       SUNNY     61  49  64 NE12      30.03R
DARLINGTON     SUNNY     61  46  59 N12       30.06S

....................REST OF NORTH CAROLINA......................

.........EASTERN NC.........

CITY           SKY/WX    TMP DP  RH WIND       PRES   REMARKS
CAPE HATTERAS  NOT AVBL
JACKSONVILLE   NOT AVBL
MOREHEAD CITY  NOT AVBL
KENANSVILLE    NOT AVBL
NEW BERN       NOT AVBL
ELIZABETH CITY NOT AVBL

.........CENTRAL NC.........

CITY           SKY/WX    TMP DP  RH WIND       PRES   REMARKS
RALEIGH DURHAM NOT AVBL
ROCKY MOUNT    NOT AVBL
ROANOKE RAPIDS NOT AVBL
FAYETTEVILLE   NOT AVBL
HOFFMAN        NOT AVBL

.........WESTERN NC.........

CITY           SKY/WX    TMP DP  RH WIND       PRES   REMARKS
CHARLOTTE      NOT AVBL
GREENSBORO     NOT AVBL
HICKORY        NOT AVBL
BOONE          NOT AVBL
ASHEVILLE      NOT AVBL

.....................REST OF SOUTH CAROLINA.....................

.........EASTERN SC.........

CITY           SKY/WX    TMP DP  RH WIND       PRES   REMARKS
CHARLESTON     MOSUNNY   65  52  62 NE10      30.00S
BEAUFORT MCAS  PTSUNNY   63  59  87 NE8       29.98
HILTON HEAD    PTSUNNY   68  63  83 N8        30.00R

.........CENTRAL SC.........

CITY           SKY/WX    TMP DP  RH WIND       PRES   REMARKS
COLUMBIA       MOSUNNY   62  44  51 N6        30.05R
ORANGEBURG     SUNNY     63  45  51 NE12      30.03R
SUMTER SHAW    SUNNY     61  45  54 NE14      30.03R

.........WESTERN SC.........

CITY           SKY/WX    TMP DP  RH WIND       PRES   REMARKS
GREENVILLE     NOT AVBL
ROCK HILL      SUNNY     59  43  55 NE9       30.08R
ANDERSON       SUNNY     54  43  66 N6        30.09R
CLEMSON        NOT AVBL
GREENWOOD      SUNNY     57  44  62 N7        30.09R


...................COASTAL AND OFFSHORE REPORTS..................

................LOCAL PIERS AND NC RESERVE................


STATION/POSITION TIME  SKY/WX   TEMP    WIND        PRES    VSBY  WAVE
                                AIR SEA DIR/SP/G                  HT/PER
                 (UTC)          (F)     (DEG/KT/KT) (MB)    (MI)  (FT/S)
JOHNY MRCER PIER 1400            60 73   10/ 12/ 14 1015.2R
NC RESRV MASNBRO 1300            60      10/  4     1015.0R
OCEAN CREST PIER 1400            60 70   10/  7/ 12 1014.6R
SPRINGMAID  PIER 1400            58 70  360/  9/ 12 1015.9R


................COASTAL AND OFFSHORE BUOYS................


STATION/POSITION TIME  SKY/WX   TEMP    WIND        PRES    VSBY  WAVE
                                AIR SEA DIR/SP/G                  HT/PER
                 (UTC)          (F)     (DEG/KT/KT) (MB)    (MI)  (FT/S)
DIMNDSHOAL 41025 1400            67     360/ 17/ 21 1014.6R         4/ 6
CAPE LOOKOUT     1400            61      10/ 16/ 18 1015.2R
ONSLOW BAY 41036 1400            63 74   30/ 19/ 23 1014.3F         4/ 5
5 WRITEBCH 41038 1300            59 71   40/ 19/ 23   N/A
MASONBORO  41110 1400               71                N/A           3/ 4
WILM HARBR 41108 1400               71                N/A           3/ 4
27WRITEBCH 41037 NOT AVBL
FRYING PAN 41013 1400            68 72   30/ 14/ 17 1014.9R         3/ 5
SUNST NRSH 41024 NOT AVBL
CAPRS NRSH 41029 1300            63      40/ 16/ 17   N/A
EDISTO     41004 1400            69 77   10/ 14/ 16 1014.1R         3/ 4
 SWL H/P/D(F/S/D)=  2/ 9



..........OFFSHORE BUOYS BEYOND 100 NM OFFSHORE...........
.....IN A TRIANGLE---HAT TO BERMUDA TO BAHAMAS TO HAT.....


STATION/POSITION TIME  SKY/WX   TEMP    WIND        PRES    VSBY  WAVE
                                AIR SEA DIR/SP/G                  HT/PER
                 (UTC)          (F)     (DEG/KT/KT) (MB)    (MI)  (FT/S)
150E HAT   41001 NOT AVBL
W BERMUDA  41048 1255            75 78  130/  6/  8 1014.9          3/ 5
 SWL H/P/D(F/S/D)=  3/140/ 5

ATLANTIC S 41049 1316            80 80  100/ 16/ 17 1015.0F         7/ 8
 SWL H/P/D(F/S/D)=  3/130/ 8

E BAHAMAS  41046 1318            82 84   90/ 10/ 12 1012.4S         5/ 7
 SWL H/P/D(F/S/D)=  5/ 60/ 7

NE BAHAMAS 41047 1337            79 81  180/ 10/ 12 1013.0F         5/ 8
 SWL H/P/D(F/S/D)=  5/100/ 8

120E CANVRL41010 1400            78 81  330/  4/  6 1015.2S         3/ 7
 SWL H/P/D(F/S/D)=  3/110/ 7


END




U.S. Dept. of Commerce
NOAA National Weather Service
1325 East West Highway
Silver Spring, MD 20910
E-mail: w-nws.webmaster@noaa.gov
Page last modified: May 16, 2007
NATIONAL WEATHER SERVICE: for Safety, for Work, for Fun - FOR LIFE